TimeHST,TemperatureF,Dew PointF,Humidity,Sea Level PressureIn,VisibilityMPH,Wind Direction,Wind SpeedMPH,Gust SpeedMPH,PrecipitationIn,Events,Conditions,WindDirDegrees,DateUTC
12:53 AM,72.0,61.0,68,30.08,10.0,East,6.9,-,N/A,,Clear,80,2013-02-26 10:53:00
1:53 AM,70.0,59.0,68,30.06,10.0,ENE,5.8,-,N/A,,Clear,70,2013-02-26 11:53:00
2:53 AM,69.1,57.9,68,30.05,10.0,NE,9.2,-,N/A,,Clear,50,2013-02-26 12:53:00
3:53 AM,66.9,57.9,73,30.04,10.0,East,3.5,-,N/A,,Clear,90,2013-02-26 13:53:00
4:53 AM,66.0,57.0,73,30.04,10.0,ENE,4.6,-,N/A,,Clear,60,2013-02-26 14:53:00
5:53 AM,66.9,57.9,73,30.04,10.0,East,3.5,-,N/A,,Clear,90,2013-02-26 15:53:00
6:53 AM,66.9,59.0,76,30.04,10.0,ESE,8.1,-,N/A,,Clear,110,2013-02-26 16:53:00
7:53 AM,72.0,61.0,68,30.06,10.0,ESE,8.1,-,N/A,,Clear,110,2013-02-26 17:53:00
8:53 AM,75.9,63.0,64,30.08,10.0,SE,8.1,-,N/A,,Clear,140,2013-02-26 18:53:00
9:53 AM,78.1,62.1,58,30.09,10.0,SSW,9.2,-,N/A,,Clear,200,2013-02-26 19:53:00
10:53 AM,79.0,63.0,58,30.08,10.0,SSW,9.2,-,N/A,,Clear,210,2013-02-26 20:53:00
11:53 AM,80.1,64.0,58,30.06,10.0,WSW,11.5,-,N/A,,Clear,240,2013-02-26 21:53:00
12:53 PM,82.0,63.0,52,30.04,10.0,SW,11.5,-,N/A,,Partly Cloudy,220,2013-02-26 22:53:00
1:53 PM,81.0,62.1,52,30.03,10.0,SW,11.5,-,N/A,,Mostly Cloudy,230,2013-02-26 23:53:00
2:53 PM,79.0,61.0,54,30.02,10.0,WSW,11.5,-,N/A,,Overcast,240,2013-02-27 00:53:00
3:53 PM,80.1,62.1,54,30.02,10.0,SSW,11.5,-,N/A,,Mostly Cloudy,200,2013-02-27 01:53:00
4:53 PM,79.0,62.1,56,30.01,10.0,SSW,13.8,-,N/A,,Partly Cloudy,200,2013-02-27 02:53:00
5:53 PM,77.0,62.1,60,30.05,10.0,South,8.1,-,N/A,,Overcast,170,2013-02-27 03:53:00
6:53 PM,77.0,57.0,50,30.06,10.0,ENE,12.7,-,N/A,,Overcast,60,2013-02-27 04:53:00
7:53 PM,75.0,55.9,51,30.09,10.0,NNE,9.2,-,N/A,,Clear,20,2013-02-27 05:53:00
8:53 PM,75.0,57.0,53,30.09,10.0,North,3.5,-,N/A,,Clear,10,2013-02-27 06:53:00
9:53 PM,73.9,59.0,59,30.09,10.0,SSE,6.9,-,N/A,,Partly Cloudy,160,2013-02-27 07:53:00
10:53 PM,73.9,57.0,55,30.11,10.0,ENE,9.2,-,N/A,,Mostly Cloudy,70,2013-02-27 08:53:00
11:53 PM,73.9,59.0,59,30.10,10.0,Calm,Calm,-,N/A,,Mostly Cloudy,0,2013-02-27 09:53:00